Silverthorne, CO

11:52 PM MDT on August 23, 2016 (GMT -0600)
Kremmling

Weather History for K20V - November, 2012

Change the Weather History Date:

Friday, November 2, 2012

  Actual Average Record
Temperature  
Mean Temperature 37 °F -  
Max Temperature 53 °F - 70 °F (2015)
Min Temperature 21 °F - 6 °F (2004)
Degree Days  
Heating Degree Days 28    
Month to date heating degree days  
Cooling Degree Days 0    
Month to date cooling degree days  
Moisture  
Dew Point 18 °F    
Average Humidity 53    
Maximum Humidity 80    
Minimum Humidity 21    
Precipitation  
Precipitation 0.00 in - 0.22 in (2003)
Sea Level Pressure  
Sea Level Pressure 30.17 in    
Wind  
Wind Speed 0 mph (North)    
Max Wind Speed 10 mph    
Max Gust Speed -    
T = Trace of Precipitation, MM = Missing Value Source: NWS Daily Summary

Daily Weather History Graph

Daily Weather History Graph

Search for Another Location

Airport or City:

Trip Planner

Search our weather history database for the weather conditions in past years. The results will help you decide how hot, cold, wet, or windy it might be!

Date:

Astronomy

Nov. 02, 2012 Rise Set
Actual Time 7:36 AM MDT 6:01 PM MDT
Civil Twilight 7:08 AM MDT 6:29 PM MDT
Nautical Twilight 6:36 AM MDT 7:01 PM MDT
Astronomical Twilight 6:04 AM MDT 7:32 PM MDT
Moon 8:50 PM MDT (11/2) 10:58 AM MDT (11/2)
Length of Visible Light 11h 21m
Length of Day
10h 24m
Waning Gibbous, 87% of the Moon is Illuminated
Nov 2
Waning Gibbous
Nov 6
Last Quarter
Nov 13
New
Nov 20
First Quarter
Nov 28
Full

Hourly Weather History & Observations

Time (MDT) Temp. Windchill Dew Point Humidity Pressure Visibility Wind Dir Wind Speed Gust Speed Precip Events Conditions
12:14 AM 30.2 °F - 17.6 °F 60% 30.13 in - Calm Calm - N/A   Clear
12:35 AM 28.4 °F - 17.6 °F 64% 30.13 in - Calm Calm - N/A   Clear
12:54 AM 30.2 °F - 17.6 °F 60% 30.13 in - Calm Calm - N/A   Clear
1:15 AM 30.2 °F - 17.6 °F 60% 30.14 in - Calm Calm - N/A   Clear
1:35 AM 28.4 °F - 15.8 °F 59% 30.13 in - Calm Calm - N/A   Clear
1:55 AM 28.4 °F - 17.6 °F 64% 30.13 in - Calm Calm - N/A   Clear
2:15 AM 28.4 °F - 15.8 °F 59% 30.14 in - Calm Calm - N/A   Clear
2:35 AM 28.4 °F - 17.6 °F 64% 30.14 in - Calm Calm - N/A   Clear
2:55 AM 26.6 °F - 17.6 °F 69% 30.14 in - Calm Calm - N/A   Clear
3:15 AM 26.6 °F - 15.8 °F 64% 30.14 in - Calm Calm - N/A   Clear
3:35 AM 24.8 °F - 15.8 °F 69% 30.14 in - Calm Calm - N/A   Clear
3:55 AM 23.0 °F - 14.0 °F 68% 30.14 in - Calm Calm - N/A   Clear
4:15 AM 23.0 °F - 14.0 °F 68% 30.14 in - Calm Calm - N/A   Clear
4:35 AM 23.0 °F - 14.0 °F 68% 30.14 in - Calm Calm - N/A   Clear
4:55 AM 21.2 °F - 14.0 °F 74% 30.15 in - Calm Calm - N/A   Clear
5:15 AM 21.2 °F - 14.0 °F 74% 30.16 in - Calm Calm - N/A   Clear
5:35 AM 21.2 °F - 14.0 °F 74% 30.16 in - Calm Calm - N/A   Clear
5:55 AM 21.2 °F - 14.0 °F 74% 30.16 in - Calm Calm - N/A   Clear
6:15 AM 21.2 °F - 14.0 °F 74% 30.17 in - Calm Calm - N/A   Clear
6:35 AM 21.2 °F - 14.0 °F 74% 30.18 in - Calm Calm - N/A   Clear
6:55 AM 21.2 °F - 15.8 °F 80% 30.19 in - Calm Calm - N/A   Clear
7:15 AM 21.2 °F - 14.0 °F 74% 30.19 in - Calm Calm - N/A   Clear
7:35 AM 21.2 °F - 14.0 °F 74% 30.19 in - Calm Calm - N/A   Clear
7:55 AM 21.2 °F - 14.0 °F 74% 30.20 in - Calm Calm - N/A   Clear
8:15 AM 21.2 °F - 14.0 °F 74% 30.21 in - Calm Calm - N/A   Clear
8:34 AM 23.0 °F - 17.6 °F 80% 30.21 in - Calm Calm - N/A   Clear
8:55 AM 23.0 °F - 17.6 °F 80% 30.22 in - Calm Calm - N/A   Clear
9:15 AM 23.0 °F - 17.6 °F 80% 30.22 in - Calm Calm - N/A   Clear
9:35 AM 28.4 °F - 19.4 °F 69% 30.22 in - Calm Calm - N/A   Clear
9:55 AM 32.0 °F - 17.6 °F 55% 30.22 in - Calm Calm - N/A   Clear
10:15 AM 33.8 °F - 19.4 °F 56% 30.21 in - Calm Calm - N/A   Clear
10:35 AM 35.6 °F - 19.4 °F 52% 30.21 in - Calm Calm - N/A   Clear
10:55 AM 37.4 °F - 19.4 °F 48% 30.20 in - Calm Calm - N/A   Clear
11:15 AM 41.0 °F - 19.4 °F 42% 30.20 in - Calm Calm - N/A   Clear
11:35 AM 42.8 °F - 17.6 °F 36% 30.20 in - Calm Calm - N/A   Clear
11:53 AM 48.2 °F - 19.4 °F 32% 30.19 in - Calm Calm - N/A   Clear
12:15 PM 50.0 °F - 19.4 °F 30% 30.18 in - Calm Calm - N/A   Scattered Clouds
12:35 PM 53.6 °F - 19.4 °F 26% 30.17 in - Calm Calm - N/A   Scattered Clouds
12:55 PM 53.6 °F - 19.4 °F 26% 30.16 in - Calm Calm - N/A   Scattered Clouds
1:15 PM 53.6 °F - 17.6 °F 24% 30.16 in - Calm Calm - N/A   Clear
1:35 PM 53.6 °F - 17.6 °F 24% 30.15 in - Calm Calm - N/A   Scattered Clouds
1:55 PM 53.6 °F - 17.6 °F 24% 30.14 in - Calm Calm - N/A   Scattered Clouds
2:13 PM 53.6 °F - 15.8 °F 22% 30.14 in - NNE 3.5 mph - N/A   Scattered Clouds
2:35 PM 53.6 °F - 17.6 °F 24% 30.13 in - Calm Calm - N/A   Mostly Cloudy
2:55 PM 53.6 °F - 17.6 °F 24% 30.13 in - Calm Calm - N/A   Mostly Cloudy
3:15 PM 53.6 °F - 17.6 °F 24% 30.13 in - Calm Calm - N/A   Mostly Cloudy
3:35 PM 53.6 °F - 15.8 °F 22% 30.13 in - Calm Calm - N/A   Overcast
3:55 PM 53.6 °F - 14.0 °F 21% 30.13 in - Calm Calm - N/A   Overcast
4:15 PM 53.6 °F - 14.0 °F 21% 30.13 in - Calm Calm - N/A   Overcast
4:34 PM 53.6 °F - 17.6 °F 24% 30.14 in - North 3.5 mph - N/A   Overcast
4:54 PM 53.6 °F - 19.4 °F 26% 30.14 in - North 5.8 mph - N/A   Overcast
5:15 PM 51.8 °F - 19.4 °F 28% 30.14 in - North 4.6 mph - N/A   Mostly Cloudy
5:35 PM 51.8 °F - 19.4 °F 28% 30.14 in - North 10.4 mph - N/A   Scattered Clouds
5:55 PM 50.0 °F - 19.4 °F 30% 30.15 in - NNW 9.2 mph - N/A   Clear
6:15 PM 48.2 °F - 21.2 °F 34% 30.16 in - North 8.1 mph - N/A   Clear
6:35 PM 46.4 °F - 21.2 °F 37% 30.17 in - Calm Calm - N/A   Clear
6:55 PM 46.4 °F 44.3 °F 21.2 °F 37% 30.18 in - North 4.6 mph - N/A   Clear
7:15 PM 44.6 °F - 19.4 °F 37% 30.18 in - Calm Calm - N/A   Clear
7:35 PM 37.4 °F - 19.4 °F 48% 30.19 in - Calm Calm - N/A   Clear
7:55 PM 39.2 °F - 21.2 °F 49% 30.19 in - Calm Calm - N/A   Clear
8:15 PM 35.6 °F - 21.2 °F 56% 30.20 in - Calm Calm - N/A   Clear
8:35 PM 35.6 °F - 21.2 °F 56% 30.20 in - Calm Calm - N/A   Clear
8:55 PM 33.8 °F - 19.4 °F 56% 30.20 in - Calm Calm - N/A   Clear
9:15 PM 32.0 °F - 19.4 °F 60% 30.21 in - Calm Calm - N/A   Clear
9:35 PM 32.0 °F - 21.2 °F 64% 30.22 in - Calm Calm - N/A   Clear
9:55 PM 32.0 °F - 21.2 °F 64% 30.22 in - Calm Calm - N/A   Clear
10:15 PM 32.0 °F - 21.2 °F 64% 30.23 in - Calm Calm - N/A   Clear
10:35 PM 30.2 °F - 21.2 °F 69% 30.23 in - Calm Calm - N/A   Clear
10:55 PM 30.2 °F - 21.2 °F 69% 30.24 in - Calm Calm - N/A   Clear
11:15 PM 30.2 °F - 21.2 °F 69% 30.24 in - Calm Calm - N/A   Clear
11:35 PM 28.4 °F - 19.4 °F 69% 30.25 in - Calm Calm - N/A   Clear
11:54 PM 26.6 °F - 17.6 °F 69% 30.25 in - Calm Calm - N/A   Clear